Regional Weather Roundup
Issued by NWS

Home | Current Version | Previous Version | Graphics & Text | Print | Product List | Glossary On
Versions: 1 2 3 4 5 6 7 8 9 10 11 12 13 14 15 16 17 18 19 20 21 22 23 24 25 26 27 28 29 30 31 32 33 34 35 36 37 38 39 40 41 42 43 44 45 46 47 48 49 50
000
ASUS43 KDMX 170201
RWRIA

WEATHER ROUNDUP FOR IOWA
NATIONAL WEATHER SERVICE DES MOINES IA
800 PM CST SAT DEC 16 2017

NOTE: "FAIR" INDICATES FEW OR NO CLOUDS BELOW 12,000 FEET WITH NO
SIGNIFICANT WEATHER AND/OR OBSTRUCTIONS TO VISIBILITY.

* - THESE STATIONS ARE NOT NWS STATIONS...THUS NOT UNDER NWS
QUALITY CONTROL.  THEY ALSO DO NOT REPORT WEATHER SUCH
AS PRECIPITATION OR FOG.

IAZ001>003-012>014-020>022-031>034-043>046-170300-
   NORTHWEST IOWA

CITY           SKY/WX    TMP DP  RH WIND       PRES   REMARKS
CARROLL *      CLOUDY    34  27  75 N5        30.00R WCI  30
CHEROKEE *     PTCLDY    33  29  83 NE3       30.02R
LE MARS *      PTCLDY    34  28  80 CALM      30.03R
ORANGE CITY *  CLEAR     36  32  87 NE8       30.02R WCI  29
SHELDON *      PTCLDY    30  27  86 N8        30.01R WCI  23
SIOUX CITY     PTCLDY    39  30  70 NE12      30.01R WCI  32
SPENCER        CLOUDY    28  24  85 NE8       30.02R WCI  20
STORM LAKE *   CLEAR     32  27  80 NE9       30.00R WCI  24
$$

IAZ055>058-069>071-079>083-090>094-170300-
   SOUTHWEST IOWA

CITY           SKY/WX    TMP DP  RH WIND       PRES   REMARKS
ATLANTIC *     CLEAR     28  21  74 N10       29.95F WCI  19
AUDUBON *      CLEAR     32  25  74 CALM      29.98R
CLARINDA *     CLOUDY    30  23  74 N5        29.98R WCI  25
COUNCIL BLFS * CLEAR     37  27  65 SE5       29.95S WCI  34
CRESTON *      CLOUDY    39  25  56 CALM      29.96F
HARLAN  *      CLEAR     32  25  74 N9        29.99S WCI  24
LAMONI         CLOUDY    45  26  47 CALM      29.96R
RED OAK *      CLOUDY    32  23  69 N5        29.95S WCI  27
SHENANDOAH *   CLOUDY    32  23  69 CALM      29.96R
$$

IAZ047>049-059>061-072>074-084-170300-
   CENTRAL IOWA

CITY           SKY/WX    TMP DP  RH WIND       PRES   REMARKS
AMES           CLEAR     34  27  75 NW3       29.98R
ANKENY *       CLEAR     32  25  74 N3        29.99R
BOONE *        CLEAR     36  27  69 N7        29.98R WCI  30
CHARITON *     CLOUDY    39  25  56 SW5       29.97R
DES MOINES     CLEAR     39  26  59 CALM      29.97R
GRINNELL*      CLOUDY    35  23  62 S7        29.98R WCI  29
KNOXVILLE *    CLOUDY    43  25  49 SW3       29.96R
MARSHALLTOWN   CLEAR     33  23  66 NE8       29.96R WCI  26
NEWTON *       CLOUDY    37  23  56 S5        29.98R WCI  34
PELLA *        CLOUDY    40  26  57 CALM      29.99R
PERRY *          N/A     37  24  61 N9        29.99R WCI  30
$$

IAZ004>006-015-016-023>025-035-036-170300-
   NORTH CENTRAL IOWA

CITY           SKY/WX    TMP DP  RH WIND       PRES   REMARKS
ALGONA *       CLEAR     28  30 100 NE6       30.01R WCI  22
CLARION *      CLOUDY    30  27  86 NE6       29.99R WCI  24
ESTHERVILLE    CLOUDY    27  26  96 N12       30.01R WCI  17
FORT DODGE *   CLOUDY    34  27  75 N5        30.01R WCI  30
MASON CITY     CLOUDY    25  21  85 N7        30.01R WCI  17
FOREST CITY *    N/A     30  28  93 N5        29.99S WCI  25
WEBSTER CITY * CLOUDY    32  25  74 N7        29.97R WCI  26
IOWA FALLS *     N/A     35  26  70 N7        29.99R WCI  29
$$

IAZ007>011-017>019-026>030-037>042-050>054-066-170300-
   NORTHEAST IOWA

CITY           SKY/WX    TMP DP  RH WIND       PRES   REMARKS
CEDAR RAPIDS   CLOUDY    34  25  69 E9        29.96R WCI  27
CHARLES CITY * CLOUDY    30  28  93 NE9       30.00R WCI  22
CLINTON *      CLOUDY    30  24  78 E9        30.01R WCI  22
DECORAH *      PTCLDY    30  25  80 NE7       30.00R WCI  23
DUBUQUE        CLEAR     32  26  78 NE8       29.99R WCI  25
MONTICELLO *   CLEAR     30  23  74 CALM      29.99R
OELWEIN *      CLEAR     30  27  86 NE9       30.00R WCI  22
WATERLOO       CLEAR     30  22  72 NE3       29.98R
$$

IAZ064-065-067-068-078-170300-
   EAST CENTRAL IOWA

CITY           SKY/WX    TMP DP  RH WIND       PRES   REMARKS
DAVENPORT      CLOUDY    31  22  69 E5        30.02R WCI  26
IOWA CITY      CLOUDY    32  23  69 CALM      30.00R
MT. PLEASANT * CLOUDY    37  25  60 SE3       29.99S
MUSCATINE *    CLOUDY    30  21  69 CALM      30.00R
QUAD CITIES    CLOUDY    29  22  75 CALM      30.00R
$$

IAZ062-063-075>077-085>089-095>099-170300-
   SOUTHEAST IOWA

CITY           SKY/WX    TMP DP  RH WIND       PRES   REMARKS
BURLINGTON     CLOUDY    37  27  67 CALM      29.98R
FAIRFIELD *    CLOUDY    37  23  56 CALM      29.98S
FORT MADISON * CLEAR     48  28  46 CALM      29.98F
KEOKUK *       PTCLDY    43  27  52 CALM      29.98R
OSKALOOSA *      N/A     34  24  66 S3        29.98R
OTTUMWA        CLOUDY    40  25  55 CALM      29.97R
WASHINGTON *   CLOUDY    32  25  74 CALM      29.99R
$$

ABBREVIATIONS USED IN REMARKS
   TC - TEMPERATURES IN CELSIUS
  WCI - WIND CHILL INDEX
   HX - HEAT INDEX
  VSB - VISIBILITY
$$





USA.gov is the U.S. government's official web portal to all federal, state and local government web resources and services.